TimeCST,TemperatureF,Dew PointF,Humidity,Sea Level PressureIn,VisibilityMPH,Wind Direction,Wind SpeedMPH,Gust SpeedMPH,PrecipitationIn,Events,Conditions,WindDirDegrees,DateUTC
12:54 AM,19.0,14.0,81,29.76,10.0,SW,9.2,-,N/A,,Clear,220,2013-01-08 06:54:00
1:54 AM,18.0,12.9,81,29.73,10.0,SSE,6.9,-,N/A,,Clear,160,2013-01-08 07:54:00
2:54 AM,16.0,12.0,84,29.72,10.0,ESE,3.5,-,N/A,,Clear,120,2013-01-08 08:54:00
3:54 AM,21.9,15.1,75,29.68,10.0,Calm,Calm,-,N/A,,Mostly Cloudy,0,2013-01-08 09:54:00
4:54 AM,28.9,19.0,67,29.64,10.0,South,16.1,23.0,N/A,,Overcast,180,2013-01-08 10:54:00
5:54 AM,28.0,21.9,78,29.62,10.0,South,16.1,28.8,N/A,,Overcast,190,2013-01-08 11:54:00
6:54 AM,28.9,25.0,85,29.59,9.0,South,12.7,-,0.00,,Overcast,180,2013-01-08 12:54:00
7:54 AM,30.2,26.6,86,29.49,10.0,SSW,17.3,24.2,N/A,,Overcast,200,2013-01-08 13:54:00
8:54 AM,30.9,27.0,85,29.58,10.0,SSW,12.7,-,N/A,,Mostly Cloudy,210,2013-01-08 14:54:00
9:54 AM,32.0,27.0,82,29.60,10.0,WSW,12.7,-,N/A,,Clear,240,2013-01-08 15:54:00
10:21 AM,33.8,26.6,75,29.54,10.0,WSW,17.3,-,N/A,,Mostly Cloudy,250,2013-01-08 16:21:00
10:28 AM,32.0,26.6,80,29.54,10.0,WSW,16.1,-,N/A,,Scattered Clouds,250,2013-01-08 16:28:00
10:54 AM,33.1,26.1,75,29.63,10.0,West,19.6,-,N/A,,Scattered Clouds,260,2013-01-08 16:54:00
11:11 AM,33.8,26.6,75,29.56,10.0,West,18.4,-,N/A,,Mostly Cloudy,260,2013-01-08 17:11:00
11:54 AM,35.1,28.0,76,29.64,10.0,West,25.3,31.1,N/A,,Overcast,270,2013-01-08 17:54:00
12:43 PM,35.6,26.6,70,29.58,10.0,West,24.2,32.2,N/A,,Scattered Clouds,260,2013-01-08 18:43:00
12:54 PM,36.0,27.0,70,29.64,10.0,West,27.6,38.0,N/A,,Partly Cloudy,260,2013-01-08 18:54:00
1:54 PM,36.0,26.1,67,29.65,10.0,West,18.4,31.1,N/A,,Clear,260,2013-01-08 19:54:00
2:54 PM,35.1,25.0,67,29.67,10.0,West,25.3,40.3,N/A,,Clear,260,2013-01-08 20:54:00
3:54 PM,34.0,24.1,67,29.70,10.0,West,26.5,36.8,N/A,,Clear,260,2013-01-08 21:54:00
4:54 PM,32.0,21.9,66,29.73,10.0,WSW,20.7,-,N/A,,Clear,250,2013-01-08 22:54:00
5:54 PM,33.1,24.1,70,29.73,10.0,WSW,23.0,31.1,N/A,,Clear,240,2013-01-08 23:54:00
6:54 PM,32.0,23.0,69,29.74,10.0,WSW,18.4,26.5,N/A,,Mostly Cloudy,240,2013-01-09 00:54:00
7:54 PM,32.0,23.0,69,29.76,10.0,West,31.1,44.9,N/A,,Mostly Cloudy,270,2013-01-09 01:54:00
8:14 PM,30.2,21.2,69,29.70,10.0,West,29.9,46.0,N/A,,Overcast,270,2013-01-09 02:14:00
8:54 PM,28.9,21.0,72,29.79,10.0,West,28.8,44.9,N/A,,Overcast,280,2013-01-09 02:54:00
9:13 PM,28.4,21.2,74,29.74,10.0,WNW,38.0,46.0,N/A,,Overcast,290,2013-01-09 03:13:00
9:54 PM,27.0,19.0,72,29.83,9.0,West,28.8,46.0,N/A,,Mostly Cloudy,280,2013-01-09 03:54:00
10:20 PM,26.6,17.6,69,29.78,10.0,West,26.5,38.0,N/A,,Scattered Clouds,280,2013-01-09 04:20:00
10:54 PM,24.1,18.0,77,29.86,10.0,West,17.3,25.3,N/A,,Clear,270,2013-01-09 04:54:00
11:54 PM,24.1,17.1,75,29.91,10.0,West,20.7,31.1,N/A,,Scattered Clouds,270,2013-01-09 05:54:00